Location: Pasadena, ca
(34.1243°N, 118.1037°W)
Time: 02:08:26
(UTC-07:00)

XW-2C - Visible Passes

Search period start: 17 October 2018 00:00
Search period end: 27 October 2018 00:00
Orbit: 510 x 530 km, 97.5° (Epoch: 17 October)

Date Brightness Start Highest point End Pass type
(mag) Time Alt. Az. Time Alt. Az. Time Alt. Az.
17 Oct ? 19:01:40 10° SW 19:04:22 19° W 19:07:06 10° NW visible
18 Oct ? 18:47:30 10° SSW 18:50:45 28° W 18:54:03 10° NW visible
19 Oct ? 06:22:51 10° NNE 06:26:23 34° E 06:29:54 10° SSE visible
19 Oct ? 18:33:36 10° S 18:37:10 43° W 18:40:48 10° NNW visible
20 Oct ? 06:09:42 10° NE 06:12:48 23° E 06:15:52 10° SSE visible
21 Oct ? 05:56:50 10° ENE 05:59:10 16° E 06:01:31 10° SE visible
22 Oct ? 05:45:02 10° E 05:45:31 10° E 05:46:01 10° E visible
23 Oct ? 19:15:27 10° WSW 19:17:15 13° W 19:19:04 10° WNW visible
24 Oct ? 19:00:51 10° SW 19:03:37 19° W 19:06:25 10° NW visible
25 Oct ? 06:35:28 10° NNE 06:39:14 52° E 06:42:57 10° S visible
25 Oct ? 18:46:42 10° SSW 18:50:00 29° W 18:53:21 10° NW visible
26 Oct ? 06:22:08 10° NNE 06:25:39 33° E 06:29:08 10° SSE visible
26 Oct ? 18:32:48 10° S 18:36:24 44° W 18:40:04 10° NNW visible
